Terminal Aerodrome Forecast
Issued by NWS Louisville, KY

Home | Current Version | Previous Version | Text Only | Print | Product List | Glossary On
Versions: 1 2 3 4 5 6 7 8 9 10 11 12
000
FTUS43 KLMK 300500
TAFBWG
TAF
KBWG 300520Z 3006/3106 00000KT P6SM SKC
     FM300900 00000KT 5SM BR SKC
     FM301300 30005KT P6SM SCT050 SCT150=

USA.gov is the U.S. government's official web portal to all federal, state and local government web resources and services.